Language: 


Des rapports , des résumés tant et plus, au choix de chacun....


Données statistiques de la station
Quotidien Rapport Aout 16, 2017 Unités:  Métrique    Anglais   les deux
« Précédent Jour
Suivant Jour »
Quotidien Hebdomadaire Mensuel Annuel Actuel
  Haut: Bas: Moyen:
Température: 26.1 °C 0.0 °C 18.4 °C
Pt de rosée: 19.0 °C 11.0 °C 14.2 °C
Humidité: 98 % 0 % 79 %
Vitesse du vent: 16.6 km/h 0.0 km/h 2.3 km/h
Rafales: 18.0 km/h - -
Vent:- - WSW
Pression: 1021.9 hPa 0.0 hPa -
Précipitation: 0.0 mm    
Historical Graphs
 
 
Données statistiques pour Aout 16, 2017
Heure Température Point de rosée Pression Vent Vitesse du vent Refales Humidité Pluie (taux horaire)
00:03 14.9 °C 14.0 °C 1018.2 hPa Calm   7.2 km/h 93 % 0.0 mm
00:08 14.9 °C 14.0 °C 1018.2 hPa Calm   7.2 km/h 94 % 0.0 mm
00:13 14.8 °C 14.0 °C 1018.8 hPa Calm   6.4 km/h 94 % 0.0 mm
00:18 14.7 °C 14.0 °C 1018.8 hPa Calm   5.5 km/h 94 % 0.0 mm
00:23 14.6 °C 14.0 °C 1018.8 hPa Calm   5.5 km/h 94 % 0.0 mm
00:28 14.6 °C 14.0 °C 1018.8 hPa Calm     94 % 0.0 mm
00:29 14.5 °C 14.0 °C 1018.8 hPa Calm     94 % 0.0 mm
00:34 14.5 °C 14.0 °C 1018.8 hPa Calm   5.8 km/h 94 % 0.0 mm
00:39 14.5 °C 14.0 °C 1018.8 hPa WSW 6.4 km/h 6.4 km/h 94 % 0.0 mm
00:44 14.5 °C 14.0 °C 1018.8 hPa Calm   6.4 km/h 95 % 0.0 mm
00:50 14.4 °C 14.0 °C 1018.8 hPa Calm   6.4 km/h 95 % 0.0 mm
00:55 14.4 °C 14.0 °C 1018.8 hPa Calm   5.8 km/h 95 % 0.0 mm
01:00 14.5 °C 14.0 °C 1018.8 hPa Calm   6.4 km/h 95 % 0.0 mm
01:05 14.5 °C 14.0 °C 1018.8 hPa Calm   6.4 km/h 96 % 0.0 mm
01:10 14.5 °C 14.0 °C 1018.8 hPa Calm   2.6 km/h 95 % 0.0 mm
01:15 14.4 °C 14.0 °C 1018.2 hPa Calm     95 % 0.0 mm
01:20 14.4 °C 14.0 °C 1018.2 hPa Calm     95 % 0.0 mm
01:25 14.2 °C 14.0 °C 1018.2 hPa Calm     95 % 0.0 mm
01:30 14.1 °C 13.0 °C 1018.2 hPa Calm     95 % 0.0 mm
01:35 14.0 °C 13.0 °C 1018.2 hPa Calm     95 % 0.0 mm
01:40 14.0 °C 13.0 °C 1018.2 hPa Calm     95 % 0.0 mm
01:45 13.9 °C 14.0 °C 1018.8 hPa Calm   2.1 km/h 96 % 0.0 mm
01:50 13.8 °C 13.0 °C 1018.8 hPa Calm   4.0 km/h 96 % 0.0 mm
01:55 13.9 °C 14.0 °C 1018.8 hPa Calm   5.0 km/h 96 % 0.0 mm
02:00 13.9 °C 14.0 °C 1018.8 hPa Calm   5.0 km/h 96 % 0.0 mm
02:05 13.9 °C 14.0 °C 1018.8 hPa Calm   5.8 km/h 96 % 0.0 mm
02:10 14.0 °C 14.0 °C 1018.8 hPa Calm   5.8 km/h 96 % 0.0 mm
02:15 14.1 °C 14.0 °C 1018.8 hPa SW 1.4 km/h 6.1 km/h 97 % 0.0 mm
02:20 14.1 °C 14.0 °C 1018.8 hPa WSW 5.0 km/h 10.1 km/h 97 % 0.0 mm
02:26 14.2 °C 14.0 °C 1018.8 hPa SW 5.8 km/h 10.1 km/h 97 % 0.0 mm
02:31 14.2 °C 14.0 °C 1018.8 hPa Calm   6.4 km/h 97 % 0.0 mm
02:36 14.0 °C 14.0 °C 1018.8 hPa Calm   6.1 km/h 97 % 0.0 mm
02:41 13.9 °C 14.0 °C 1018.8 hPa Calm   4.3 km/h 97 % 0.0 mm
02:46 13.8 °C 13.0 °C 1018.2 hPa Calm   4.3 km/h 97 % 0.0 mm
02:51 13.8 °C 13.0 °C 1018.2 hPa Calm     97 % 0.0 mm
02:56 13.7 °C 13.0 °C 1018.2 hPa Calm   5.5 km/h 97 % 0.0 mm
03:01 0.0 °C 13.0 °C 0.0 hPa Calm   5.5 km/h 0 % 0.0 mm
03:06 13.7 °C 13.0 °C 1018.2 hPa Calm   9.0 km/h 97 % 0.0 mm
03:11 13.7 °C 13.0 °C 1018.8 hPa Calm   9.0 km/h 97 % 0.0 mm
03:16 13.6 °C 13.0 °C 1018.8 hPa Calm   2.1 km/h 97 % 0.0 mm
03:22 13.6 °C 13.0 °C 1018.8 hPa Calm   2.1 km/h 97 % 0.0 mm
03:27 13.5 °C 13.0 °C 1018.8 hPa Calm     97 % 0.0 mm
03:32 13.3 °C 13.0 °C 1018.8 hPa Calm   4.0 km/h 97 % 0.0 mm
03:37 13.2 °C 13.0 °C 1018.8 hPa Calm   4.0 km/h 97 % 0.0 mm
03:42 13.2 °C 13.0 °C 1018.2 hPa Calm   4.0 km/h 97 % 0.0 mm
03:47 13.2 °C 13.0 °C 1018.2 hPa Calm   4.0 km/h 97 % 0.0 mm
03:52 13.1 °C 13.0 °C 1018.2 hPa Calm     97 % 0.0 mm
03:57 13.0 °C 13.0 °C 1018.8 hPa Calm     97 % 0.0 mm
04:02 13.0 °C 13.0 °C 1018.8 hPa Calm     97 % 0.0 mm
04:07 12.9 °C 13.0 °C 1018.8 hPa Calm     98 % 0.0 mm
04:12 12.8 °C 13.0 °C 1018.8 hPa Calm     98 % 0.0 mm
04:17 12.8 °C 13.0 °C 1018.8 hPa Calm     98 % 0.0 mm
04:22 12.8 °C 13.0 °C 1018.8 hPa Calm     98 % 0.0 mm
04:27 12.7 °C 13.0 °C 1018.8 hPa Calm     98 % 0.0 mm
04:32 12.5 °C 13.0 °C 1018.8 hPa Calm     98 % 0.0 mm
04:38 12.4 °C 13.0 °C 1018.8 hPa Calm     98 % 0.0 mm
04:43 12.4 °C 13.0 °C 1018.8 hPa Calm     98 % 0.0 mm
04:48 12.3 °C 13.0 °C 1018.8 hPa Calm     98 % 0.0 mm
04:53 12.2 °C 12.0 °C 1018.8 hPa Calm     98 % 0.0 mm
04:58 12.1 °C 12.0 °C 1018.8 hPa Calm     98 % 0.0 mm
05:03 12.1 °C 12.0 °C 1018.8 hPa Calm     98 % 0.0 mm
05:08 12.0 °C 12.0 °C 1018.8 hPa Calm     98 % 0.0 mm
05:09 12.0 °C 12.0 °C 1018.8 hPa Calm     98 % 0.0 mm
05:14 12.1 °C 12.0 °C 1018.8 hPa Calm   5.0 km/h 98 % 0.0 mm
05:19 12.1 °C 12.0 °C 1018.8 hPa Calm   5.0 km/h 98 % 0.0 mm
05:21 12.1 °C 12.0 °C 1018.8 hPa Calm   5.0 km/h 98 % 0.0 mm
05:22 12.1 °C 12.0 °C 1018.8 hPa Calm     98 % 0.0 mm
05:26 12.0 °C 12.0 °C 1018.8 hPa Calm     98 % 0.0 mm
05:31 12.1 °C 12.0 °C 1018.8 hPa Calm   3.5 km/h 98 % 0.0 mm
05:36 12.2 °C 12.0 °C 1018.8 hPa Calm   3.5 km/h 98 % 0.0 mm
05:41 12.1 °C 12.0 °C 1018.8 hPa Calm   1.4 km/h 98 % 0.0 mm
05:46 12.0 °C 12.0 °C 1018.8 hPa Calm   1.4 km/h 98 % 0.0 mm
05:52 12.0 °C 12.0 °C 1018.8 hPa Calm     98 % 0.0 mm
05:57 11.7 °C 12.0 °C 1018.8 hPa Calm     98 % 0.0 mm
06:02 11.6 °C 12.0 °C 1018.8 hPa Calm     98 % 0.0 mm
06:07 11.4 °C 11.0 °C 1018.8 hPa Calm     98 % 0.0 mm
06:12 11.2 °C 11.0 °C 1018.8 hPa Calm     98 % 0.0 mm
06:17 11.1 °C 11.0 °C 1018.8 hPa Calm     98 % 0.0 mm
06:22 11.0 °C 11.0 °C 1018.8 hPa Calm     98 % 0.0 mm
06:27 11.1 °C 11.0 °C 1018.8 hPa Calm     98 % 0.0 mm
06:32 11.3 °C 11.0 °C 1018.8 hPa South 4.7 km/h 4.7 km/h 98 % 0.0 mm
06:37 11.5 °C 12.0 °C 1018.8 hPa Calm   5.5 km/h 98 % 0.0 mm
06:42 11.6 °C 12.0 °C 1019.9 hPa Calm   5.5 km/h 98 % 0.0 mm
06:47 11.7 °C 12.0 °C 1019.9 hPa Calm   2.1 km/h 98 % 0.0 mm
06:52 11.9 °C 12.0 °C 1019.9 hPa Calm   2.1 km/h 98 % 0.0 mm
06:57 12.1 °C 12.0 °C 1019.9 hPa Calm   2.1 km/h 98 % 0.0 mm
06:58 12.1 °C 12.0 °C 1019.9 hPa South 1.8 km/h 2.1 km/h 98 % 0.0 mm
07:03 12.2 °C 12.0 °C 1019.9 hPa Calm   1.8 km/h 98 % 0.0 mm
07:08 12.4 °C 13.0 °C 1019.9 hPa Calm   1.4 km/h 98 % 0.0 mm
07:13 12.5 °C 13.0 °C 1019.9 hPa Calm   1.4 km/h 98 % 0.0 mm
07:18 12.6 °C 13.0 °C 1019.9 hPa Calm   1.4 km/h 98 % 0.0 mm
07:23 12.9 °C 13.0 °C 1019.9 hPa Calm   1.4 km/h 98 % 0.0 mm
07:28 13.2 °C 13.0 °C 1019.9 hPa Calm   4.3 km/h 98 % 0.0 mm
07:33 13.5 °C 14.0 °C 1019.9 hPa Calm   4.3 km/h 98 % 0.0 mm
07:38 13.8 °C 14.0 °C 1019.9 hPa WSW 1.8 km/h 4.0 km/h 98 % 0.0 mm
07:43 13.9 °C 14.0 °C 1019.9 hPa Calm   6.1 km/h 98 % 0.0 mm
07:48 14.1 °C 14.0 °C 1019.9 hPa Calm   6.1 km/h 98 % 0.0 mm
07:53 14.3 °C 14.0 °C 1019.9 hPa Calm   3.2 km/h 98 % 0.0 mm
07:58 14.4 °C 14.0 °C 1020.9 hPa Calm     98 % 0.0 mm
08:03 14.5 °C 15.0 °C 1020.9 hPa Calm     98 % 0.0 mm
08:08 14.6 °C 15.0 °C 1020.9 hPa Calm     98 % 0.0 mm
08:13 14.7 °C 15.0 °C 1019.9 hPa Calm     98 % 0.0 mm
08:18 14.9 °C 15.0 °C 1019.9 hPa Calm     98 % 0.0 mm
08:24 14.9 °C 15.0 °C 1019.9 hPa Calm   1.4 km/h 98 % 0.0 mm
08:29 15.2 °C 15.0 °C 1020.9 hPa South 3.5 km/h 3.5 km/h 98 % 0.0 mm
08:34 15.4 °C 15.0 °C 1020.9 hPa Calm   5.8 km/h 98 % 0.0 mm
08:39 15.7 °C 16.0 °C 1020.9 hPa Calm   5.8 km/h 98 % 0.0 mm
08:44 15.9 °C 16.0 °C 1020.9 hPa Calm   1.8 km/h 98 % 0.0 mm
08:49 16.2 °C 16.0 °C 1020.9 hPa Calm     98 % 0.0 mm
08:54 16.5 °C 16.0 °C 1020.9 hPa Calm   5.8 km/h 97 % 0.0 mm
08:59 16.6 °C 16.0 °C 1020.9 hPa Calm   5.8 km/h 97 % 0.0 mm
09:04 16.9 °C 17.0 °C 1020.9 hPa Calm   3.5 km/h 97 % 0.0 mm
09:09 16.9 °C 17.0 °C 1020.9 hPa Calm   5.0 km/h 97 % 0.0 mm
09:14 17.2 °C 17.0 °C 1020.9 hPa Calm   5.0 km/h 96 % 0.0 mm
09:19 17.5 °C 17.0 °C 1020.9 hPa Calm   6.9 km/h 96 % 0.0 mm
09:24 17.7 °C 17.0 °C 1020.9 hPa Calm   6.9 km/h 96 % 0.0 mm
09:29 17.9 °C 18.0 °C 1020.9 hPa Calm   5.0 km/h 96 % 0.0 mm
09:34 18.4 °C 18.0 °C 1020.9 hPa WSW 4.3 km/h 6.1 km/h 95 % 0.0 mm
09:39 18.7 °C 18.0 °C 1020.9 hPa West 4.3 km/h 9.3 km/h 95 % 0.0 mm
09:44 18.9 °C 18.0 °C 1020.9 hPa Calm   9.3 km/h 94 % 0.0 mm
09:49 19.2 °C 18.0 °C 1020.9 hPa Calm   9.3 km/h 94 % 0.0 mm
09:54 19.2 °C 18.0 °C 1020.9 hPa West 3.5 km/h 10.1 km/h 93 % 0.0 mm
10:00 19.3 °C 18.0 °C 1020.9 hPa Calm   10.1 km/h 92 % 0.0 mm
10:05 19.7 °C 18.0 °C 1020.9 hPa West 9.3 km/h 9.3 km/h 92 % 0.0 mm
10:10 19.4 °C 18.0 °C 1020.9 hPa West 4.0 km/h 10.5 km/h 91 % 0.0 mm
10:15 19.4 °C 18.0 °C 1020.9 hPa WSW 5.0 km/h 10.5 km/h 91 % 0.0 mm
10:20 19.3 °C 18.0 °C 1020.9 hPa Calm   6.1 km/h 90 % 0.0 mm
10:25 19.3 °C 18.0 °C 1020.9 hPa West 10.1 km/h 10.1 km/h 90 % 0.0 mm
10:30 19.1 °C 17.0 °C 1020.9 hPa WSW 5.5 km/h 10.1 km/h 89 % 0.0 mm
10:35 19.1 °C 17.0 °C 1020.9 hPa WSW 7.6 km/h 10.1 km/h 89 % 0.0 mm
10:40 19.3 °C 18.0 °C 1020.9 hPa WSW 7.2 km/h 10.1 km/h 90 % 0.0 mm
10:45 19.5 °C 18.0 °C 1020.9 hPa WSW 8.7 km/h 12.2 km/h 89 % 0.0 mm
10:50 19.4 °C 18.0 °C 1020.9 hPa Calm   12.2 km/h 89 % 0.0 mm
10:55 19.3 °C 18.0 °C 1020.9 hPa West 4.0 km/h 7.9 km/h 89 % 0.0 mm
11:00 19.4 °C 18.0 °C 1020.9 hPa West 5.8 km/h 6.9 km/h 90 % 0.0 mm
11:05 19.4 °C 18.0 °C 1020.9 hPa Calm   10.1 km/h 89 % 0.0 mm
11:10 19.5 °C 18.0 °C 1020.9 hPa SSW 4.3 km/h 10.1 km/h 90 % 0.0 mm
11:15 19.8 °C 18.0 °C 1020.9 hPa Calm   6.9 km/h 90 % 0.0 mm
11:20 20.4 °C 19.0 °C 1020.9 hPa Calm   6.9 km/h 89 % 0.0 mm
11:25 20.8 °C 19.0 °C 1020.9 hPa Calm   6.4 km/h 88 % 0.0 mm
11:30 20.8 °C 18.0 °C 1020.9 hPa Calm   6.4 km/h 86 % 0.0 mm
11:35 20.8 °C 18.0 °C 1020.9 hPa Calm   6.4 km/h 85 % 0.0 mm
11:40 21.2 °C 19.0 °C 1020.9 hPa Calm   6.4 km/h 85 % 0.0 mm
11:45 21.6 °C 19.0 °C 1021.9 hPa SSW 5.0 km/h 5.8 km/h 84 % 0.0 mm
11:50 21.6 °C 18.0 °C 1021.9 hPa Calm   5.8 km/h 81 % 0.0 mm
11:55 22.0 °C 19.0 °C 1021.9 hPa Calm   5.8 km/h 80 % 0.0 mm
12:00 22.1 °C 18.0 °C 1020.9 hPa Calm   5.8 km/h 79 % 0.0 mm
12:05 21.9 °C 18.0 °C 1020.9 hPa Calm   8.7 km/h 78 % 0.0 mm
12:10 21.9 °C 18.0 °C 1020.9 hPa WSW 3.5 km/h 9.0 km/h 77 % 0.0 mm
12:15 22.3 °C 18.0 °C 1020.9 hPa WSW 6.4 km/h 9.0 km/h 77 % 0.0 mm
12:20 22.3 °C 18.0 °C 1020.9 hPa WSW 5.5 km/h 8.7 km/h 75 % 0.0 mm
12:25 22.1 °C 17.0 °C 1020.9 hPa Calm   8.7 km/h 74 % 0.0 mm
12:30 22.2 °C 18.0 °C 1020.9 hPa West 6.4 km/h 10.5 km/h 75 % 0.0 mm
12:35 22.1 °C 17.0 °C 1020.9 hPa SW 9.3 km/h 10.5 km/h 74 % 0.0 mm
12:40 22.0 °C 17.0 °C 1020.9 hPa Calm   9.3 km/h 72 % 0.0 mm
12:45 22.1 °C 17.0 °C 1020.9 hPa WSW 5.8 km/h 9.3 km/h 73 % 0.0 mm
12:50 22.2 °C 17.0 °C 1020.9 hPa Calm   7.9 km/h 72 % 0.0 mm
12:55 22.2 °C 17.0 °C 1020.9 hPa Calm   7.9 km/h 70 % 0.0 mm
13:00 22.1 °C 16.0 °C 1020.9 hPa Calm   10.1 km/h 70 % 0.0 mm
13:06 22.3 °C 17.0 °C 1020.9 hPa Calm   10.1 km/h 72 % 0.0 mm
13:11 22.3 °C 17.0 °C 1020.9 hPa SW 6.4 km/h 7.6 km/h 70 % 0.0 mm
13:16 22.3 °C 17.0 °C 1020.9 hPa WSW 10.1 km/h 10.1 km/h 71 % 0.0 mm
13:21 22.4 °C 17.0 °C 1020.9 hPa Calm   10.1 km/h 71 % 0.0 mm
13:26 22.3 °C 16.0 °C 1020.9 hPa SW 6.1 km/h 10.1 km/h 69 % 0.0 mm
13:31 22.4 °C 16.0 °C 1021.9 hPa South 1.4 km/h 10.1 km/h 69 % 0.0 mm
13:36 22.8 °C 17.0 °C 1021.9 hPa SW 9.3 km/h 9.3 km/h 69 % 0.0 mm
13:41 23.8 °C 18.0 °C 1021.9 hPa South 4.3 km/h 9.3 km/h 69 % 0.0 mm
13:46 24.2 °C 18.0 °C 1020.9 hPa WSW 1.4 km/h 8.7 km/h 67 % 0.0 mm
13:51 24.5 °C 18.0 °C 1020.9 hPa Calm   9.3 km/h 66 % 0.0 mm
13:56 24.4 °C 17.0 °C 1020.9 hPa WSW 6.1 km/h 11.1 km/h 64 % 0.0 mm
14:01 23.2 °C 16.0 °C 1020.9 hPa Calm   11.1 km/h 63 % 0.0 mm
14:06 22.9 °C 16.0 °C 1020.9 hPa West 7.2 km/h 9.3 km/h 65 % 0.0 mm
14:11 22.9 °C 16.0 °C 1020.9 hPa Calm   9.3 km/h 66 % 0.0 mm
14:16 22.8 °C 16.0 °C 1019.9 hPa Calm   7.2 km/h 66 % 0.0 mm
14:21 22.7 °C 16.0 °C 1019.9 hPa Calm   7.2 km/h 66 % 0.0 mm
14:26 22.5 °C 16.0 °C 1019.9 hPa Calm   9.0 km/h 67 % 0.0 mm
14:31 22.7 °C 16.0 °C 1019.9 hPa SSW 6.1 km/h 9.0 km/h 67 % 0.0 mm
14:36 23.0 °C 16.0 °C 1019.9 hPa Calm   9.3 km/h 66 % 0.0 mm
14:41 23.3 °C 17.0 °C 1019.9 hPa WSW 8.7 km/h 11.9 km/h 65 % 0.0 mm
14:46 23.2 °C 16.0 °C 1019.9 hPa West 9.0 km/h 11.9 km/h 64 % 0.0 mm
14:51 23.1 °C 15.0 °C 1019.9 hPa WSW 10.5 km/h 12.6 km/h 62 % 0.0 mm
14:56 23.2 °C 16.0 °C 1020.9 hPa West 11.1 km/h 12.6 km/h 62 % 0.0 mm
15:01 23.2 °C 15.0 °C 1020.9 hPa SSW 1.4 km/h 12.6 km/h 61 % 0.0 mm
15:06 23.3 °C 15.0 °C 1020.9 hPa SSW 4.0 km/h 12.6 km/h 59 % 0.0 mm
15:12 23.5 °C 15.0 °C 1019.9 hPa SW 5.5 km/h 12.2 km/h 59 % 0.0 mm
15:17 24.7 °C 16.0 °C 1019.9 hPa West 6.1 km/h 11.9 km/h 58 % 0.0 mm
15:22 25.1 °C 15.0 °C 1019.9 hPa WSW 12.6 km/h 12.6 km/h 55 % 0.0 mm
15:27 24.3 °C 14.0 °C 1019.9 hPa SW 5.5 km/h 12.6 km/h 51 % 0.0 mm
15:32 24.6 °C 13.0 °C 1019.9 hPa WSW 6.9 km/h 12.2 km/h 47 % 0.0 mm
15:37 25.3 °C 14.0 °C 1019.9 hPa WSW 10.1 km/h 12.2 km/h 50 % 0.0 mm
15:42 25.1 °C 13.0 °C 1018.8 hPa WSW 11.9 km/h 16.3 km/h 47 % 0.0 mm
15:47 25.1 °C 13.0 °C 1018.8 hPa West 6.9 km/h 16.3 km/h 46 % 0.0 mm
15:52 25.1 °C 13.0 °C 1018.8 hPa West 6.1 km/h 14.8 km/h 47 % 0.0 mm
15:57 25.1 °C 13.0 °C 1018.8 hPa WSW 1.4 km/h 15.8 km/h 48 % 0.0 mm
15:58 25.2 °C 14.0 °C 1018.8 hPa West 7.6 km/h 15.8 km/h 49 % 0.0 mm
16:03 25.8 °C 14.0 °C 1018.8 hPa WSW 6.4 km/h 15.8 km/h 47 % 0.0 mm
16:08 25.3 °C 13.0 °C 1018.8 hPa SSW 10.5 km/h 13.0 km/h 44 % 0.0 mm
16:13 25.1 °C 13.0 °C 1018.8 hPa WSW 7.6 km/h 13.0 km/h 47 % 0.0 mm
16:18 25.2 °C 14.0 °C 1018.8 hPa WSW 12.6 km/h 12.6 km/h 49 % 0.0 mm
16:24 25.1 °C 14.0 °C 1018.8 hPa West 12.6 km/h 12.6 km/h 49 % 0.0 mm
16:29 25.1 °C 13.0 °C 1018.8 hPa WSW 10.1 km/h 12.6 km/h 47 % 0.0 mm
16:34 24.9 °C 13.0 °C 1018.8 hPa West 4.3 km/h 10.1 km/h 46 % 0.0 mm
16:39 24.8 °C 12.0 °C 1018.8 hPa West 9.7 km/h 11.6 km/h 45 % 0.0 mm
16:44 25.3 °C 13.0 °C 1018.8 hPa WSW 8.7 km/h 11.9 km/h 45 % 0.0 mm
16:49 25.5 °C 13.0 °C 1018.8 hPa West 9.3 km/h 12.6 km/h 44 % 0.0 mm
16:54 25.7 °C 13.0 °C 1018.8 hPa West 5.5 km/h 12.6 km/h 44 % 0.0 mm
16:59 26.1 °C 13.0 °C 1018.8 hPa WSW 6.4 km/h 9.7 km/h 45 % 0.0 mm
17:04 26.1 °C 13.0 °C 1018.8 hPa SSW 8.7 km/h 10.1 km/h 45 % 0.0 mm
17:09 26.1 °C 13.0 °C 1018.8 hPa WSW 6.4 km/h 10.1 km/h 43 % 0.0 mm
17:14 26.0 °C 13.0 °C 1018.8 hPa Calm   12.2 km/h 43 % 0.0 mm
17:19 25.5 °C 13.0 °C 1018.8 hPa WSW 6.1 km/h 14.0 km/h 45 % 0.0 mm
17:24 25.5 °C 13.0 °C 1018.8 hPa WSW 7.2 km/h 14.0 km/h 44 % 0.0 mm
17:29 25.4 °C 12.0 °C 1018.8 hPa WSW 7.6 km/h 14.0 km/h 43 % 0.0 mm
17:34 25.1 °C 13.0 °C 1018.8 hPa WSW 5.5 km/h 15.4 km/h 46 % 0.0 mm
17:39 25.2 °C 13.0 °C 1018.8 hPa Calm   15.4 km/h 46 % 0.0 mm
17:44 25.3 °C 13.0 °C 1018.8 hPa West 6.9 km/h 13.7 km/h 45 % 0.0 mm
17:49 25.3 °C 13.0 °C 1018.8 hPa WSW 7.9 km/h 13.7 km/h 45 % 0.0 mm
17:54 25.2 °C 13.0 °C 1018.8 hPa WSW 7.9 km/h 13.7 km/h 45 % 0.0 mm
17:55 25.2 °C 13.0 °C 1018.8 hPa WSW 16.6 km/h 16.6 km/h 45 % 0.0 mm
18:00 25.2 °C 13.0 °C 1018.8 hPa West 4.0 km/h 16.9 km/h 46 % 0.0 mm
18:05 25.3 °C 13.0 °C 1018.8 hPa West 11.9 km/h 16.9 km/h 46 % 0.0 mm
18:10 25.3 °C 13.0 °C 1018.8 hPa WSW 9.0 km/h 13.0 km/h 46 % 0.0 mm
18:15 25.2 °C 13.0 °C 1018.8 hPa WSW 6.9 km/h 13.0 km/h 45 % 0.0 mm
18:20 25.3 °C 13.0 °C 1018.8 hPa WSW 11.9 km/h 12.6 km/h 46 % 0.0 mm
18:25 24.8 °C 13.0 °C 1018.8 hPa West 9.0 km/h 18.0 km/h 46 % 0.0 mm
18:30 24.7 °C 13.0 °C 1018.8 hPa West 5.5 km/h 18.0 km/h 47 % 0.0 mm
18:35 25.2 °C 14.0 °C 1018.8 hPa WSW 4.3 km/h 13.0 km/h 49 % 0.0 mm
18:40 25.4 °C 14.0 °C 1018.8 hPa WSW 8.7 km/h 11.9 km/h 48 % 0.0 mm
18:45 25.0 °C 13.0 °C 1018.8 hPa West 6.1 km/h 17.7 km/h 45 % 0.0 mm
18:50 24.5 °C 13.0 °C 1018.8 hPa WSW 10.5 km/h 17.7 km/h 47 % 0.0 mm
18:55 24.2 °C 13.0 °C 1018.8 hPa WSW 5.5 km/h 14.0 km/h 48 % 0.0 mm
19:00 24.3 °C 13.0 °C 1018.8 hPa West 7.2 km/h 14.0 km/h 47 % 0.0 mm
19:05 24.6 °C 13.0 °C 1018.8 hPa WSW 6.4 km/h 13.7 km/h 49 % 0.0 mm
19:11 24.7 °C 13.0 °C 1018.8 hPa West 11.9 km/h 11.9 km/h 48 % 0.0 mm
19:16 24.6 °C 13.0 °C 1018.8 hPa WSW 6.9 km/h 11.9 km/h 48 % 0.0 mm
19:21 24.5 °C 13.0 °C 1018.8 hPa Calm   10.1 km/h 48 % 0.0 mm
19:26 24.6 °C 13.0 °C 1018.2 hPa West 4.7 km/h 9.3 km/h 47 % 0.0 mm
19:31 24.7 °C 13.0 °C 1018.2 hPa West 4.0 km/h 6.9 km/h 47 % 0.0 mm
19:36 24.6 °C 13.0 °C 1018.2 hPa West 4.7 km/h 6.9 km/h 47 % 0.0 mm
19:41 24.6 °C 13.0 °C 1018.8 hPa Calm   6.9 km/h 49 % 0.0 mm
19:46 24.3 °C 13.0 °C 1018.8 hPa Calm   6.9 km/h 48 % 0.0 mm
19:51 24.1 °C 13.0 °C 1018.8 hPa Calm   6.9 km/h 50 % 0.0 mm
19:56 23.8 °C 13.0 °C 1018.8 hPa Calm   5.5 km/h 50 % 0.0 mm
20:01 23.5 °C 13.0 °C 1018.8 hPa Calm   5.0 km/h 51 % 0.0 mm
20:06 23.2 °C 13.0 °C 1018.8 hPa Calm   5.0 km/h 52 % 0.0 mm
20:11 22.8 °C 13.0 °C 1018.8 hPa Calm     53 % 0.0 mm
20:16 22.3 °C 13.0 °C 1018.8 hPa Calm     55 % 0.0 mm
20:21 21.8 °C 13.0 °C 1018.8 hPa Calm     57 % 0.0 mm
20:26 21.4 °C 13.0 °C 1018.8 hPa Calm     59 % 0.0 mm
20:31 20.9 °C 13.0 °C 1018.8 hPa Calm     62 % 0.0 mm
20:32 20.8 °C 13.0 °C 1018.8 hPa Calm     62 % 0.0 mm
20:37 20.5 °C 14.0 °C 1018.8 hPa Calm     64 % 0.0 mm
20:42 20.0 °C 13.0 °C 1018.8 hPa Calm   2.6 km/h 64 % 0.0 mm
20:47 19.7 °C 13.0 °C 1018.8 hPa Calm   2.6 km/h 66 % 0.0 mm
20:52 19.4 °C 13.0 °C 1018.8 hPa Calm     67 % 0.0 mm
20:57 19.1 °C 13.0 °C 1018.8 hPa Calm     69 % 0.0 mm
21:03 18.7 °C 13.0 °C 1018.8 hPa Calm     70 % 0.0 mm
21:08 18.5 °C 13.0 °C 1018.8 hPa Calm     71 % 0.0 mm
21:13 18.0 °C 13.0 °C 1018.8 hPa Calm     72 % 0.0 mm
21:18 17.7 °C 13.0 °C 1018.8 hPa Calm     73 % 0.0 mm
21:23 17.5 °C 13.0 °C 1018.8 hPa Calm     74 % 0.0 mm
21:28 17.2 °C 13.0 °C 1018.8 hPa Calm     75 % 0.0 mm
21:33 17.0 °C 13.0 °C 1018.8 hPa Calm     75 % 0.0 mm
21:38 16.8 °C 13.0 °C 1018.8 hPa Calm     78 % 0.0 mm
21:43 16.8 °C 13.0 °C 1018.8 hPa Calm     79 % 0.0 mm
21:48 16.6 °C 13.0 °C 1018.8 hPa Calm     79 % 0.0 mm
21:53 16.4 °C 13.0 °C 1018.8 hPa Calm     80 % 0.0 mm
21:58 16.3 °C 13.0 °C 1018.8 hPa Calm     80 % 0.0 mm
22:03 16.1 °C 13.0 °C 1018.8 hPa Calm     81 % 0.0 mm
22:08 16.0 °C 13.0 °C 1018.8 hPa Calm   3.5 km/h 82 % 0.0 mm
22:13 15.9 °C 13.0 °C 1018.2 hPa Calm   3.5 km/h 82 % 0.0 mm
22:18 15.9 °C 13.0 °C 1018.2 hPa Calm     83 % 0.0 mm
22:23 15.8 °C 13.0 °C 1018.2 hPa Calm     83 % 0.0 mm
22:28 15.9 °C 13.0 °C 1018.2 hPa Calm   3.5 km/h 83 % 0.0 mm
22:33 16.1 °C 13.0 °C 1018.2 hPa Calm   4.3 km/h 83 % 0.0 mm
22:38 16.1 °C 13.0 °C 1018.2 hPa Calm   6.1 km/h 83 % 0.0 mm
22:43 16.1 °C 13.0 °C 1018.2 hPa Calm   6.1 km/h 83 % 0.0 mm
22:48 16.1 °C 13.0 °C 1018.2 hPa Calm     83 % 0.0 mm
22:53 16.2 °C 13.0 °C 1018.2 hPa Calm     83 % 0.0 mm
22:59 16.2 °C 13.0 °C 1018.2 hPa Calm     83 % 0.0 mm
23:04 16.2 °C 13.0 °C 1018.2 hPa Calm     83 % 0.0 mm
23:09 16.4 °C 13.0 °C 1018.2 hPa Calm   4.3 km/h 83 % 0.0 mm
23:14 16.4 °C 13.0 °C 1018.2 hPa ESE 4.7 km/h 4.7 km/h 83 % 0.0 mm
23:19 16.4 °C 13.0 °C 1018.2 hPa Calm   6.9 km/h 83 % 0.0 mm
23:24 16.4 °C 13.0 °C 1018.2 hPa Calm   6.9 km/h 83 % 0.0 mm
23:29 16.4 °C 13.0 °C 1018.2 hPa Calm     83 % 0.0 mm
23:34 16.3 °C 13.0 °C 1018.2 hPa Calm     83 % 0.0 mm
23:39 16.2 °C 13.0 °C 1018.2 hPa Calm     83 % 0.0 mm
23:44 16.2 °C 13.0 °C 1016.8 hPa Calm     83 % 0.0 mm
23:49 16.1 °C 13.0 °C 1016.8 hPa Calm     83 % 0.0 mm
23:54 16.1 °C 13.0 °C 1016.8 hPa Calm   4.0 km/h 84 % 0.0 mm
23:59 16.2 °C 14.0 °C 1016.8 hPa Calm   4.0 km/h 84 % 0.0 mm
Le Gheer Warneton
Courtoisie de Weather Underground - 2.5 mb

Mise a jour : 18/12/2017 23:25:11
Généré par Cumulus 1.9.4 (1099)